Regional Weather Roundup
Issued by NWS Grand Forks, ND

Home | Current Version | Previous Version | Graphics & Text | Print | Product List | Glossary On
Versions: 1 2 3 4 5 6 7 8 9 10 11 12 13 14 15 16 17 18 19 20 21 22 23 24 25 26 27 28 29 30 31 32 33 34 35 36 37 38 39 40 41 42 43 44 45 46 47 48 49 50
714
ASUS43 KFGF 041531
RWRFGF
PRAIRIE TO PINES  WEATHER ROUNDUP
NATIONAL WEATHER SERVICE EASTERN NORTH DAKOTA/GRAND FORKS ND
1000 AM CDT WED MAY 04 2016

 **SATELLITE DATA USED TO AUGMENT SKY COVER AT AUTOMATED STATIONS**
 *****  WEATHER ACROSS EASTERN NORTH DAKOTA  *****

CITY           SKY/WX    TMP DP  RH WIND       PRES   REMARKS
GRAND FORKS    MOSUNNY   53  37  54 N6        30.11F
GRAND FRKS AFB SUNNY     52  36  54 NW1       30.12S
DEVILS LAKE    SUNNY     52  37  56 SW3       30.12F
FARGO          SUNNY     55  36  48 NW6       30.10S
WAHPETON ARPT  SUNNY     54  34  47 N12       30.09F
$$

 ***** WEATHER ACROSS CENTRAL AND WESTERN NORTH DAKOTA  *****

CITY           SKY/WX    TMP DP  RH WIND       PRES   REMARKS
BISMARCK       SUNNY     58  36  43 SE5       30.12F
MINOT          SUNNY     66  33  29 S5        30.05F
JAMESTOWN      SUNNY     54  36  50 NW7       30.12S
MINOT AFB      SUNNY     62  38  40 SE6       30.04F
GARRISON         N/A     56  33  42 S5        30.07F
WILLISTON      SUNNY     65  44  46 SW5       30.05F
DICKINSON      SUNNY     68  39  34 SW12      30.08F
HETTINGER      SUNNY     64  41  42 W6        30.12F
$$

 *****  OTHER AIRPORT OBSERVATIONS IN OUR AREA  *****

CITY           SKY/WX    TMP DP  RH WIND       PRES   REMARKS
WALHALLA       FAIR      52  37  58 CALM      30.11F
GRAFTON AIRPOR FAIR      54  36  50 W5        30.13F
VALLEY CITY AR FAIR      54  36  50 N9        30.13F
CANDO          FAIR      55  32  41 S3        30.13F
CAVALIER APRT  FAIR      52  37  58 CALM      30.11F
GWINNER        FAIR      55  36  47 N10       30.11F
SHEYENNE NWR     N/A     53  36  53 N7        29.95
ROLLA          FAIR      55  32  41 SW8       30.10F
 ***** THE ABOVE OBSERVATIONS ARE NON NWS ARE NOT QUALITY
       CONTROLLED AND MAY MIS-REPORT RAIN FOR SNOW...
$$

  *****  WEATHER ACROSS NORTHERN MINNESOTA  *****

CITY           SKY/WX    TMP DP  RH WIND       PRES   REMARKS
FLAG ISLAND    SUNNY     46  28  49 N6        30.07F
WARROAD        SUNNY     50  36  57 E6        30.09S
ROSEAU         SUNNY     54  32  43 N12       30.08F
HALLOCK        CLOUDY    54  36  50 NW5       30.10F
THF RVR FALLS  SUNNY     54  32  43 NW14      30.10F
BAUDETTE       SUNNY     50  26  39 N12       30.07S
WASKISH        SUNNY     52  28  40 N8        30.06S
CROOKSTON      SUNNY     54  36  50 N6        30.11F
STEPHEN NDAWN    N/A     54  34  47 NW3         N/A
GREENBUSH NDAW   N/A     54  37  54 NW8         N/A
$$
  *****  WEATHER ACROSS CENTRAL AND WEST MINNESOTA  *****

CITY           SKY/WX    TMP DP  RH WIND       PRES   REMARKS
FOSSTON        SUNNY     52  30  43 N10       30.09S
BEMIDJI        SUNNY     52  32  46 N13G20    30.06S
PARK RAPIDS    SUNNY     53  33  46 N16       30.05S
ELBOW LAKE     FAIR      55  35  47 NW12      30.07S
WADENA         SUNNY     54  36  50 N10G17    30.04F
DETROIT LAKES  SUNNY     55  37  50 N10       30.07F
MOORHEAD       SUNNY     54  36  50 N9        30.10F
FERGUS FALLS   SUNNY     55  37  50 NW12      30.06S
MORRIS MN      SUNNY     57  36  44 NW13      30.06S
STAPLES        SUNNY     55  34  44 N13G21    30.04F
$$
  *****  WEATHER ELSEWHERE ACROSS MINNESOTA  *****

CITY           SKY/WX    TMP DP  RH WIND       PRES   REMARKS
DULUTH         SUNNY     51  26  37 N18G26    29.95F
INTRNTL FALLS  SUNNY     47  26  44 NW8       30.04S
ELY            SUNNY     46  25  42 NW10G17   29.98S
CLOQUET        SUNNY     52  25  35 NW17G25   29.97S
WHEATON        SUNNY     59  39  47 NW9       30.10F
BRAINERD       SUNNY     52  34  50 N14       30.02S
HIBBING        SUNNY     48  27  44 N13G24    29.99S
ALEXANDRIA     SUNNY     57  33  40 NW14      30.06S
SAINT CLOUD    SUNNY     55  33  43 N12G21    30.01S
MINNEAPOLIS    MOSUNNY   55  33  43 NW14      29.99S
$$

  *****  WEATHER ACROSS SOUTH DAKOTA  *****

CITY           SKY/WX    TMP DP  RH WIND       PRES   REMARKS
SIOUX FALLS    SUNNY     56  37  49 NE8       30.09R
BROOKINGS      SUNNY     54  35  48 N5        30.08S
WATERTOWN      SUNNY     56  37  49 NW7       30.09S
HURON          SUNNY     54  37  52 N9        30.12S
SISSETON         N/A     55  37  50 N13       30.09R
ABERDEEN       SUNNY     56  35  45 N9        30.13S
MITCHELL       SUNNY     53  40  61 N7        30.13R
PIERRE         SUNNY     56  36  47 CALM      30.13F
MOBRIDGE       SUNNY     56  38  50 SW5       30.11F
RAPID CITY     SUNNY     63  42  46 SW3       30.16F
$$

  *****  SOME WEATHER IN NEARBY STATES *****

CITY           SKY/WX    TMP DP  RH WIND       PRES   REMARKS
GLASGOW MT     SUNNY     62  42  47 SE10      30.00F
GREAT FALLS MT SUNNY     65  37  35 S16       30.00F
CHEYENNE WY    SUNNY     58  35  42 W5        30.28S
SCOTTSBLUFF NE SUNNY     57  43  59 NW9       30.21F
OMAHA NE       SUNNY     57  40  52 N12       30.05R
DES MOINES IA  MOSUNNY   58  38  47 N17       29.97R
DAVENPORT IA   SUNNY     54  43  66 N21       29.85R
CHICAGO IL     CLOUDY    48  38  68 N20G25    29.75R
EAU CLAIRE WI  SUNNY     53  34  48 N14G23    29.92S
LA CROSSE WI   SUNNY     55  35  47 N13G26    29.90F
$$

  *****  SOME NATIONAL WEATHER *****

CITY           SKY/WX    TMP DP  RH WIND       PRES   REMARKS
LA GUARDIA NY  CLOUDY    52  47  83 E13       29.80R
RALEIGH NC     PTSUNNY   68  57  68 VRB6      29.70F
ATLANTA GA     MOSUNNY   63  45  51 NW15G21   29.82F
NEW ORLEANS LA MOSUNNY   70  49  47 N16       29.98R
OKLAHOMA CITY  SUNNY     68  49  50 NW14      30.06S
ALBUQUERQUE NM MOSUNNY   57  31  37 N9        30.33S
SALT LAKE CITY PTSUNNY   64  34  32 S14       30.15S
LOS ANGELES CA CLOUDY    59  54  82 W7        29.97R FOG
BOISE ID       MOSUNNY   61  39  44 NW3       29.99S
SEATTLE WA     CLOUDY    54  45  71 N10       30.08S
$$

*** WEATHER ACROSS MANITOBA...SASKATCHEWAN AND ONTARIO ***
                ***ONTARIO***

CITY           SKY/WX    TMP DP  RH WIND       PRES   REMARKS
GERALDTON      LGT SNOW  32  30  93 N8        29.93R VSB 1   WCI  25
THUNDER BAY    PTSUNNY   45  30  57 N8G17     29.96R
SIOUX LOOKOUT  SUNNY     39  25  56 N12       30.04S
TORONTO        PTSUNNY   55  39  54 SE10      29.72S
BIG TROUT LK   SUNNY     30  18  59 SW7       30.08F WCI  23
PICKLE LAKE    MOSUNNY   37  16  41 NW5       30.02F
DRYDEN         SUNNY     41  16  36 N9        30.04S
KENORA         MOSUNNY   45  25  45 NW8       30.07S
$$
                *** MANITOBA***

CITY           SKY/WX    TMP DP  RH WIND       PRES   REMARKS
BRANDON        MOSUNNY   55  36  47 S6        30.07F
DAUPHIN        SUNNY     63  32  31 SW9       30.00F
ISLAND LAKE    PTSUNNY   39  23  52 VRB2      30.07F
PILOT MOUND      N/A     54  32  43 SW5         N/A
THE PAS        CLOUDY    57  34  41 S13G21    29.84F
THOMPSON       PTSUNNY   48  28  46 SW12G20   29.90F
WINNIPEG       PTSUNNY   54  36  50 W8        30.11F
LYNN LAKE      PTSUNNY   55  34  44 SW10G21   29.74R
CHURCHILL      PTSUNNY   36  25  64 S15       29.86F
GILLAM         PTSUNNY   39  21  48 S10       29.96F
$$
                ***SASKATCHEWAN***

CITY           SKY/WX    TMP DP  RH WIND       PRES   REMARKS
ESTEVAN        PTSUNNY   70  43  37 SW15      30.01F
KINDERSLEY     SUNNY     68  37  32 SW16      29.85F
LLOYDMINSTER   MOSUNNY   64  45  48 W8        29.77S
PRINCE ALBERT  MOSUNNY   73  45  35 SW10      29.80F
REGINA         MOSUNNY   70  43  37 SE8       29.97F
YORKTON        SUNNY     63  37  39 S13       29.94F
N. BATTLEFORD  SUNNY     70  41  35 SW10      29.81F
LA RONGE       SUNNY     64  41  42 S3        29.72F
SASKATOON      SUNNY     68  43  40 S13       29.85F
SWIFT CURRENT  SUNNY     73  39  29 SW16      29.93F
$$
NOTE: THESE ARE AUTOMATED STATIONS WITH LIMITED QUALITY CONTROL
      "FAIR" INDICATES FEW OR NO CLOUDS BELOW 12,000 FEET WITH NO
      SIGNIFICANT WEATHER AND/OR OBSTRUCTIONS TO VISIBILITY.
      SKY/WX - SKY CONDITION AND SIGNIFICANT WEATHER.
      TMP - AIR TEMPERATURE.    DP   - DEWPOINT TEMPERATURE.
      RH  - RELATIVE HUMIDITY.  PRES - PRESSURE.
      HX  - HEAT INDEX.         WCI  - WIND CHILL INDEX.
$




USA.gov is the U.S. government's official web portal to all federal, state and local government web resources and services.